RH
58 55 65 96 80 79 87 100 90 74 65 53 57 56 62 73 82 72 48 37 32 40 46 47 40 36 31 28 24 24 30 35 38 48 74 92 90 89 82 72 62 56 54 44 27 19 19 21 22
63 68 67 71 87 77 79 99 93 72 51 64 56 69 68 56 72 76 53 38 35 44 40 39 38 36 31 26 22 20 24 36 57 72 99 100 96 80 72 68 62 56 50 35 23 20 22 23 24
62 69 67 75 84 89 80 81 76 72 48 64 71 78 67 53 64 65 48 38 42 50 43 37 38 38 32 26 20 18 27 47 76 82 92 86 83 68 58 58 60 58 43 32 24 22 24 26 25
70 62 67 79 87 100 90 73 66 64 54 51 75 79 67 52 47 56 41 40 48 51 45 39 38 38 32 26 19 20 30 48 54 64 60 56 54 58 54 58 62 51 41 31 25 25 28 27 24
60 61 48 76 100 100 97 81 66 60 58 56 75 87 81 66 50 44 45 41 50 48 46 43 41 38 33 28 20 21 28 38 41 45 43 52 55 56 60 66 59 50 39 28 26 30 29 29 28
30 71 56 59 100 100 100 84 72 59 56 57 74 79 94 86 63 46 45 39 48 49 47 48 43 38 34 33 24 23 27 34 39 46 54 60 63 67 72 66 58 54 41 30 29 30 30 30 28
14 44 81 99 95 100 100 91 80 62 54 53 71 83 91 90 80 61 52 38 51 52 49 48 46 40 32 36 33 30 35 43 47 47 56 62 66 77 84 73 69 63 48 35 32 32 31 32 29
12 16 63 80 100 100 100 100 89 76 58 55 64 100 100 97 100 81 61 46 48 56 52 49 49 45 38 37 44 45 40 46 48 49 58 69 71 68 69 73 77 74 58 44 36 34 34 32 31
14 12 34 83 99 100 100 100 100 92 74 62 80 100 100 100 96 84 72 61 45 56 57 54 52 49 46 45 51 56 51 45 50 56 62 69 77 84 97 97 89 70 53 42 37 35 33 34 36
13 12 17 83 100 100 100 100 100 100 84 70 83 97 92 100 100 89 85 69 53 52 58 56 57 56 55 56 56 60 58 54 53 56 58 64 74 82 83 74 62 55 45 39 37 38 37 42 43
11 12 15 25 97 95 100 100 95 100 93 78 78 100 100 100 89 98 92 85 65 62 62 62 61 61 62 66 63 63 66 64 61 57 59 64 66 63 61 57 52 49 47 46 47 51 54 54 58
11 10 15 18 42 97 86 100 100 100 99 85 85 100 100 100 100 98 82 86 77 63 64 65 65 67 65 68 68 66 66 74 79 78 75 75 73 70 64 60 59 56 54 57 59 61 60 61 62
16 12 14 17 16 66 100 98 100 100 100 94 87 100 100 100 100 97 100 100 100 91 81 74 66 66 71 81 76 71 73 79 84 87 83 80 77 73 70 69 68 69 68 66 65 62 64 62 63
18 17 14 16 18 22 81 90 100 100 100 100 90 89 100 100 100 94 96 100 100 91 81 82 75 70 72 87 76 77 79 82 83 84 82 79 76 72 69 72 77 74 67 65 69 71 71 69 81
17 18 16 14 16 19 55 86 95 100 100 100 100 100 91 100 100 100 99 99 98 100 96 81 75 71 70 72 77 80 82 82 83 88 86 87 81 80 83 79 77 76 78 75 74 74 76 86 93
17 18 16 17 18 20 34 63 100 100 100 100 100 100 96 100 100 100 100 89 84 79 81 84 81 75 73 74 74 80 83 88 90 98 100 99 91 94 90 82 79 87 91 87 82 80 84 92 92
15 18 17 17 18 16 19 35 93 88 96 100 100 100 100 86 100 100 100 100 92 74 66 71 77 73 76 78 86 86 84 88 91 97 97 85 88 84 81 84 84 84 86 87 82 83 94 92 71
16 17 19 20 22 18 19 31 44 90 91 100 100 100 100 100 91 100 100 100 100 97 94 98 99 96 87 83 84 85 92 94 99 98 88 80 79 80 86 89 85 85 85 84 91 98 87 79 72
19 20 24 23 22 42 29 33 35 57 78 100 100 100 100 100 100 93 100 100 100 100 100 100 100 100 100 98 100 97 96 96 95 88 84 83 88 90 92 95 93 89 93 98 93 88 88 90 86
18 20 22 21 22 23 26 21 35 50 58 84 100 100 100 100 100 92 96 100 100 100 100 100 100 100 100 100 100 100 100 99 98 99 100 100 100 98 98 97 100 92 89 90 94 94 99 99 100
19 20 24 23 22 20 21 17 22 60 91 61 81 100 100 100 100 98 92 100 100 100 100 100 100 100 100 100 100 100 100 100 100 100 100 100 100 100 100 99 98 97 100 100 100 100 100 100 100
16 19 23 24 22 23 21 18 19 30 72 85 46 68 100 96 98 100 100 100 100 100 100 100 100 100 100 100 100 100 100 100 100 100 100 100 100 100 100 100 100 100 100 100 100 100 100 100 100
18 19 22 25 22 22 24 26 26 35 42 100 100 40 66 94 100 100 97 89 90 97 100 100 100 100 100 100 100 100 100 100 100 100 100 100 100 100 100 100 99 100 100 100 100 100 99 87 97
18 22 22 24 24 22 22 32 32 51 57 82 98 79 34 54 82 90 94 92 92 88 95 100 100 100 100 100 100 100 100 100 100 100 100 100 100 100 100 100 100 100 100 99 96 95 97 100 100
18 22 23 22 24 25 23 24 56 46 59 70 82 93 55 38 40 70 78 95 90 94 99 100 100 100 100 100 100 100 100 100 100 100 100 100 100 100 100 100 100 100 100 100 100 99 96 100 100
21 22 24 24 25 27 24 23 43 64 58 62 68 78 98 58 50 38 57 71 91 94 94 97 100 100 100 100 100 100 100 100 100 100 100 100 100 100 100 100 100 100 100 100 100 100 100 100 100
20 20 22 23 23 27 24 24 42 71 78 59 84 84 98 94 66 34 32 48 63 77 90 93 91 93 96 100 100 100 100 100 100 100 100 100 100 100 100 100 100 100 100 100 100 100 100 100 97
21 22 21 22 24 26 25 24 26 53 87 99 86 64 86 87 63 51 45 42 50 67 69 76 87 98 100 100 100 100 100 100 100 100 100 100 100 100 100 100 100 100 100 100 100 100 100 93 93
28 25 26 26 25 27 27 27 24 49 100 100 78 72 54 64 57 41 42 50 53 58 72 75 72 75 83 94 100 100 100 100 100 100 100 100 100 100 100 100 100 100 100 100 100 96 94 86 80
40 36 30 28 34 37 32 36 27 36 100 100 100 86 78 60 46 50 44 48 55 55 53 67 82 90 93 94 98 100 100 100 100 100 100 100 100 100 100 100 100 98 96 94 92 87 81 80 80
Wind_Speed
94 92 91 91 87 78 72 70 67 64 57 52 46 44 44 45 44 42 43 40 41 39 39 36 34 33 33 32 32 32 32 31 32 32 32 32 33 31 30 28 25 26 23 22 20 21 23 25 25
95 94 93 92 88 81 75 75 73 67 58 52 49 46 47 44 47 44 43 40 41 40 40 36 35 35 35 33 33 33 31 30 29 28 26 27 29 26 26 26 24 22 23 22 22 23 24 26 27
101 97 96 93 89 82 79 77 75 69 60 56 52 49 47 43 46 45 42 41 42 41 37 35 35 35 35 32 32 32 30 29 28 29 30 29 30 29 26 23 23 23 23 24 24 25 27 29 31
105 102 98 93 87 85 84 80 78 73 65 59 55 52 50 44 45 45 42 42 43 41 38 36 36 35 34 33 30 32 31 30 29 28 30 29 27 25 24 24 24 24 25 25 26 27 29 33 35
107 106 101 94 89 88 87 83 80 75 68 64 59 54 52 48 45 43 43 44 42 41 38 36 36 36 34 32 30 30 32 31 30 29 28 25 25 24 25 25 25 26 27 27 29 30 32 36 38
104 106 100 93 90 92 88 87 83 78 72 68 63 59 55 52 48 43 45 45 44 42 39 37 37 37 34 32 32 28 28 29 29 28 26 26 27 26 27 27 28 29 29 31 32 34 37 41 42
101 109 100 96 95 95 92 89 84 81 75 71 66 61 59 54 51 48 45 46 45 44 43 41 38 37 36 33 32 29 27 27 28 28 27 28 29 29 30 30 31 32 33 35 37 39 42 45 47
99 100 106 101 99 98 93 90 87 83 77 72 69 64 61 59 56 52 49 47 47 47 45 43 40 37 36 33 31 29 30 30 31 31 31 31 31 32 32 33 35 36 38 40 42 44 47 50 51
101 101 101 101 102 100 96 92 88 83 78 75 73 71 67 62 59 55 54 52 51 49 47 45 43 40 37 35 32 32 32 33 34 34 33 33 33 34 35 37 39 41 43 44 46 48 50 53 54
101 100 100 104 106 104 100 97 89 84 81 78 74 73 70 66 63 60 59 56 53 51 50 49 46 43 40 38 37 36 35 35 35 35 35 34 35 36 38 40 42 44 46 48 50 53 53 55 57
99 96 95 103 109 110 104 100 94 86 82 79 77 75 72 68 65 58 62 57 57 55 53 52 50 46 43 42 41 40 39 38 38 38 38 38 38 40 42 43 45 47 49 51 52 54 56 58 60
98 95 96 102 107 110 106 101 95 91 85 80 79 76 72 68 61 62 61 64 59 57 55 54 52 49 47 47 45 44 44 42 42 42 41 41 42 43 45 47 48 50 52 55 57 58 60 61 63
98 95 99 102 106 111 111 106 98 92 88 83 82 81 78 78 54 61 64 63 64 61 58 56 55 53 52 51 49 49 47 46 47 47 46 46 46 47 49 51 52 53 57 59 61 62 64 64 66
99 99 100 103 107 107 114 111 104 96 90 87 84 85 82 77 74 66 60 66 68 65 62 60 59 59 57 56 53 52 51 51 50 50 51 51 50 51 52 55 56 58 61 62 63 64 65 67 69
100 102 103 104 105 106 111 114 106 103 96 91 87 84 85 83 81 74 65 59 67 69 65 64 63 62 62 61 59 57 56 56 57 57 56 56 55 54 56 59 61 63 65 66 66 66 68 69 70
104 103 103 100 105 110 109 110 111 110 101 96 91 88 87 84 83 83 75 76 71 69 69 66 65 65 64 64 63 62 61 62 58 55 56 55 56 59 62 64 65 66 67 68 68 69 71 72 73
103 101 97 99 107 107 109 107 113 112 106 100 96 94 91 91 86 83 86 78 74 72 67 67 67 66 65 63 62 64 65 65 64 62 62 62 64 67 68 70 70 70 70 72 73 73 73 75 78
93 97 99 99 103 102 105 108 108 111 108 105 102 98 94 90 92 88 83 83 78 73 71 70 70 69 66 66 65 65 64 63 64 67 69 69 70 71 72 74 75 73 74 76 75 75 77 79 80
93 98 101 100 101 108 109 112 110 110 110 109 105 102 100 96 92 90 87 82 81 78 76 77 75 74 72 72 72 71 72 73 74 74 75 74 75 75 76 77 78 77 76 77 77 79 79 80 81
89 92 97 99 101 108 110 109 110 108 107 111 111 109 104 101 95 89 87 85 83 80 81 79 78 78 77 76 76 76 76 77 77 77 77 78 78 78 79 80 80 78 78 78 79 79 80 81 82
84 88 93 97 99 104 109 108 106 106 110 109 113 113 108 101 96 92 89 88 87 86 83 81 80 80 80 79 78 78 79 80 79 78 78 77 78 79 79 79 79 79 78 78 79 79 81 81 84
79 83 87 93 96 99 105 105 104 106 108 109 111 114 112 107 102 98 94 92 91 89 87 83 81 81 81 80 80 80 81 82 81 80 80 79 78 78 79 79 78 79 79 80 80 81 82 85 88
73 77 80 87 92 96 100 103 101 106 106 107 108 111 114 112 107 103 100 95 92 88 87 85 84 83 82 82 82 81 80 81 82 82 82 81 80 79 79 79 80 81 82 83 83 84 86 90 91
71 72 76 81 88 91 95 101 104 106 106 109 112 113 112 115 113 110 104 100 97 94 90 87 85 83 82 82 82 81 81 81 80 80 80 79 80 80 81 82 83 83 85 86 87 88 90 91 94
65 67 70 75 80 87 92 96 106 106 108 110 110 115 113 113 112 113 108 104 99 96 95 91 89 87 85 84 84 84 83 83 83 82 81 82 82 83 83 84 84 86 87 88 90 92 94 95 96
63 64 65 71 75 84 89 90 99 107 110 110 112 111 116 113 114 111 111 108 105 102 99 97 94 92 89 86 84 84 84 84 84 83 83 82 82 83 83 85 87 89 91 94 96 97 98 101 102
59 59 61 68 73 80 83 89 97 106 111 110 112 112 113 115 115 107 106 108 109 106 104 101 98 97 96 94 91 89 87 86 85 85 86 87 87 87 89 91 92 94 96 99 100 101 103 103 107
53 56 57 61 66 75 77 89 94 104 113 114 113 110 113 115 111 109 106 104 104 106 108 106 104 101 99 97 96 95 95 94 93 93 93 94 94 95 96 97 99 100 100 101 103 105 107 107 106
50 52 55 60 62 67 73 85 88 102 113 113 111 111 108 109 109 105 102 100 100 102 106 109 108 107 105 104 102 101 100 100 99 99 99 100 101 101 103 103 103 104 105 106 107 107 106 107 107
37 43 50 51 55 64 72 77 91 96 113 117 115 112 111 107 102 102 99 97 98 99 100 103 106 108 109 108 106 105 104 103 104 104 104 103 104 104 106 105 105 106 106 106 104 106 105 106 102
Wind_Direction
221 220 222 224 224 224 225 226 225 227 225 225 225 226 228 229 230 231 230 230 229 227 229 233 237 241 244 247 252 254 253 251 250 254 254 263 268 275 273 272 274 276 281 281 281 289 297 309 315
220 221 221 223 223 223 224 225 227 226 223 224 224 227 228 230 229 232 232 230 227 227 230 234 238 241 244 246 250 250 252 253 253 255 256 262 268 269 266 268 270 273 275 277 283 289 302 308 312
220 220 221 221 222 221 222 224 226 226 223 224 224 226 227 228 228 231 231 228 225 227 230 235 238 240 243 246 249 247 249 252 250 252 259 262 265 262 262 262 267 272 273 277 283 296 304 308 310
219 220 221 220 220 220 222 224 226 226 223 224 225 224 227 228 228 231 230 227 225 228 231 234 236 239 244 245 248 244 247 249 253 253 257 257 256 256 258 262 266 269 275 283 291 297 302 306 309
219 220 220 218 219 221 222 223 226 225 224 223 224 224 226 229 227 232 230 226 226 230 232 233 234 237 243 245 247 245 246 249 250 250 251 250 253 254 258 263 266 271 278 285 289 295 299 302 306
219 219 221 219 219 221 222 222 224 225 223 224 225 225 226 227 230 232 232 227 227 231 234 234 236 237 240 243 244 246 244 244 245 246 248 251 252 256 261 263 268 274 281 284 289 293 296 302 305
218 218 216 217 219 220 220 222 222 224 223 224 226 226 226 229 230 234 235 231 229 231 234 235 236 238 238 242 244 246 244 244 247 249 250 252 257 261 263 265 270 275 280 285 289 291 296 301 303
218 218 216 215 217 220 220 220 221 223 224 223 225 226 226 225 227 229 235 234 231 233 235 239 239 239 241 240 245 248 247 247 248 250 249 252 258 261 264 266 275 280 282 284 288 292 294 300 302
219 216 216 216 217 220 221 221 220 221 222 221 222 224 226 225 227 230 232 237 232 232 235 238 241 241 243 245 244 247 249 250 252 252 252 255 260 264 268 274 277 279 281 284 287 290 294 299 302
218 216 213 214 217 220 220 221 219 219 220 222 222 225 227 226 227 228 231 236 237 234 236 238 240 242 244 247 249 248 249 251 253 254 255 258 259 262 266 271 275 280 283 285 289 293 295 298 301
217 215 215 216 216 219 219 220 219 219 219 221 222 224 227 231 229 227 231 234 236 235 235 238 240 243 246 248 251 252 251 252 255 258 260 263 266 269 272 275 278 281 283 286 289 293 297 300 304
218 216 214 217 217 220 221 219 219 219 219 219 221 223 226 232 229 231 229 232 236 238 238 238 241 244 245 247 250 252 255 256 257 260 263 266 270 273 276 279 282 285 288 290 293 296 298 301 304
216 216 217 217 218 218 219 219 217 219 218 219 221 221 224 229 223 227 231 231 232 234 236 239 241 243 246 247 251 254 254 257 257 261 264 267 270 274 278 281 284 287 289 291 294 297 298 300 303
214 215 218 218 219 218 220 219 217 216 217 219 220 222 223 225 230 227 226 232 234 235 236 237 240 243 245 249 252 253 254 257 259 262 266 268 270 274 279 281 284 288 291 292 295 297 299 301 303
214 213 215 219 219 219 220 220 219 218 216 219 220 223 223 226 230 230 226 226 232 235 237 238 239 241 245 247 250 252 255 258 261 263 266 269 271 275 280 284 287 290 293 293 294 296 298 300 300
214 215 215 217 219 219 220 220 219 220 218 218 221 223 224 224 228 231 232 234 230 232 236 238 240 242 245 249 251 253 257 259 260 262 267 270 271 277 281 284 285 288 289 291 294 296 297 298 298
214 216 217 217 222 221 221 221 219 222 219 219 220 224 225 225 226 230 233 236 238 239 240 242 241 243 244 247 251 253 255 258 261 264 268 272 274 277 280 282 285 288 290 292 293 294 295 296 299
217 217 217 217 222 224 222 222 223 222 222 220 222 223 226 228 227 228 232 235 238 241 242 243 244 246 248 249 251 253 255 259 261 265 267 270 273 276 278 282 285 286 289 291 293 294 296 298 301
214 213 215 215 218 221 222 222 221 223 222 222 222 223 226 226 228 229 230 233 236 240 244 245 245 246 248 251 254 256 258 259 261 264 267 271 273 276 278 280 283 287 290 290 292 294 296 298 298
214 214 215 216 216 219 223 222 223 223 223 223 223 224 226 228 227 228 230 232 236 238 242 244 247 249 250 252 254 257 259 261 263 266 268 270 273 276 279 282 285 287 288 290 293 295 296 296 295
215 213 214 216 217 220 224 225 222 223 225 225 225 225 226 227 229 229 230 232 235 238 241 245 247 248 250 252 255 258 261 263 265 268 271 274 276 278 281 283 285 287 289 291 292 293 292 292 294
215 215 215 217 218 221 226 227 225 224 225 227 229 227 226 227 228 229 229 230 233 236 239 242 246 249 252 254 256 259 261 263 265 268 271 274 276 279 281 283 284 285 286 286 288 289 291 294 295
217 218 217 218 220 221 224 227 228 227 225 228 231 233 228 227 228 230 230 231 233 235 238 241 243 246 249 252 254 256 258 260 263 266 269 271 272 274 275 277 279 281 282 284 287 290 291 293 296
217 218 219 218 221 223 224 226 229 229 228 226 231 233 234 229 229 230 231 231 233 235 238 240 242 245 248 250 253 256 258 260 263 265 268 271 273 274 276 279 281 283 285 286 288 290 292 293 296
218 220 219 220 222 225 225 224 228 229 231 230 230 235 236 237 233 232 232 233 235 237 239 241 243 245 247 250 252 255 257 260 263 266 269 271 273 276 277 279 281 282 284 285 287 289 291 294 296
218 220 219 221 222 225 227 228 227 231 231 231 234 233 238 238 238 237 234 234 235 236 239 241 243 246 248 250 252 254 256 259 261 263 266 268 271 273 275 277 279 281 283 285 288 290 293 294 296
221 223 222 221 225 225 229 227 229 229 233 236 234 238 239 241 242 241 241 239 237 238 239 242 244 247 249 251 252 254 255 257 259 261 263 266 268 271 274 276 278 281 283 285 289 291 292 295 296
222 224 225 226 227 227 230 229 230 231 232 234 239 239 240 243 246 246 244 243 243 243 243 244 245 247 249 251 253 255 257 259 261 262 264 266 269 271 273 275 277 279 282 285 287 290 292 295 296
223 224 226 227 228 229 231 231 234 230 231 235 240 242 244 244 248 250 249 248 248 246 247 247 248 249 251 252 254 256 258 259 261 264 266 268 269 271 273 276 278 280 282 285 287 290 292 294 296
226 229 230 230 229 229 229 231 234 232 229 235 240 243 245 247 249 251 254 254 252 251 250 249 251 252 254 256 257 259 260 263 264 266 268 269 271 274 275 278 280 281 284 285 289 289 292 294 297